FW5690 Weather Reports


time (UTC)temp
F
wind
direction
speed
knots
gust
knots
rain 1hr
in
rain 24hr
in
rain mn
in
humidity
%
barometer
mb
20260507015019 69 0 0.0 6.1 0.00 0.00 0.00 67 1019.5
20260507014541 69 0 0.9 6.1 0.00 0.00 0.00 66 1019.4
20260507014016 69 0 0.0 4.3 0.00 0.00 0.00 65 1019.5
20260507013520 70 0 0.0 7.0 0.00 0.00 0.00 65 1019.5
20260507013045 70 0 0.0 7.0 0.00 0.00 0.00 64 1019.5
20260507012519 70 0 0.0 7.8 0.00 0.00 0.00 64 1019.5
20260507012021 70 313 0.9 7.8 0.00 0.00 0.00 64 1019.4
20260507011543 70 0 0.9 7.8 0.00 0.00 0.00 63 1019.4
20260507011019 70 0 0.0 7.8 0.00 0.00 0.00 63 1019.4
20260507010522 71 0 0.9 7.8 0.00 0.00 0.00 62 1019.3
20260507010043 71 330 3.5 7.8 0.00 0.00 0.00 62 1019.4
20260507005519 72 0 2.6 7.8 0.00 0.00 0.00 61 1019.3
20260507005020 72 0 1.7 7.8 0.00 0.00 0.00 60 1019.3
20260507004536 72 0 3.5 7.8 0.00 0.00 0.00 60 1019.2
20260507004019 72 265 1.7 7.8 0.00 0.00 0.00 59 1019.2
20260507003518 73 0 0.9 7.8 0.00 0.00 0.00 59 1019.1
20260507003036 73 298 0.9 7.0 0.00 0.00 0.00 59 1019.1
20260507002516 73 0 1.7 7.0 0.00 0.00 0.00 58 1019.1
20260507002018 73 0 0.9 6.1 0.00 0.00 0.00 58 1019.1
20260507001554 73 303 0.9 6.1 0.00 0.00 0.00 58 1019.1
20260507001023 74 0 0.0 7.0 0.00 0.00 0.00 57 1019.1
20260507000519 74 0 0.0 7.8 0.00 0.00 0.00 56 1019.0
20260507000038 74 294 1.7 7.8 0.00 0.00 0.00 56 1018.9
20260506235519 74 297 1.7 6.1 0.00 0.00 0.00 57 1019.0
20260506235018 73 0 0.0 5.2 0.00 0.00 0.00 58 1018.9
20260506234540 73 0 0.0 5.2 0.00 0.00 0.00 59 1019.0
20260506234019 73 0 0.0 8.7 0.00 0.00 0.00 59 1019.1
20260506233519 74 0 0.0 8.7 0.00 0.00 0.00 58 1018.9
20260506233036 74 338 1.7 11.3 0.00 0.00 0.00 58 1019.1
20260506232518 74 290 0.0 11.3 0.00 0.00 0.00 59 1019.2
20260506232018 74 312 2.6 11.3 0.00 0.00 0.00 58 1019.2
20260506231536 74 0 0.0 6.1 0.00 0.00 0.00 58 1019.2
20260506231016 74 0 0.0 7.8 0.00 0.00 0.00 58 1019.2
20260506230518 74 343 0.9 7.8 0.00 0.00 0.00 57 1019.2
20260506230033 74 0 0.0 7.0 0.00 0.00 0.00 58 1019.4
20260506225518 74 0 0.0 7.0 0.00 0.00 0.00 56 1019.4
20260506225018 75 285 2.6 7.0 0.00 0.00 0.00 56 1019.4
20260506224539 75 274 1.7 5.2 0.00 0.00 0.00 56 1019.3
20260506224014 75 293 0.0 7.8 0.00 0.00 0.00 56 1019.5
20260506223518 75 0 0.9 7.8 0.00 0.00 0.00 55 1019.6
20260506223038 75 322 0.0 7.8 0.00 0.00 0.00 56 1019.6
20260506222518 74 339 0.9 7.8 0.00 0.00 0.00 57 1019.6
20260506222019 74 0 0.0 5.2 0.00 0.00 0.00 57 1019.6
20260506221545 74 0 0.0 5.2 0.00 0.00 0.00 57 1019.7
20260506221018 74 0 0.0 5.2 0.00 0.00 0.00 57 1019.7
20260506220518 73 0 0.0 0.0 0.00 0.00 0.00 58 1019.8
20260506220042 73 0 0.0 5.2 0.00 0.00 0.00 57 1019.8
20260506215519 73 0 0.0 5.2 0.00 0.00 0.00 58 1019.9
20260506215018 73 0 0.0 5.2 0.00 0.00 0.00 58 1020.0
20260506214534 74 0 0.0 7.0 0.00 0.00 0.00 57 1020.1
20260506214017 74 0 0.9 7.0 0.00 0.00 0.00 58 1020.0
20260506213520 74 0 0.0 6.1 0.00 0.00 0.00 57 1020.1
20260506213045 74 0 0.0 6.1 0.00 0.00 0.00 57 1020.2
20260506212519 73 278 0.9 6.1 0.00 0.00 0.00 58 1020.3
20260506212018 73 0 0.0 4.3 0.00 0.00 0.00 58 1020.3
20260506211544 73 0 0.0 7.0 0.00 0.00 0.00 59 1020.5
20260506211018 73 0 0.9 7.0 0.00 0.00 0.00 58 1020.4
20260506210519 73 264 1.7 7.0 0.00 0.00 0.00 58 1020.4
20260506210044 73 0 0.0 6.1 0.00 0.00 0.00 58 1020.4
20260506205517 73 298 0.9 6.1 0.00 0.00 0.00 58 1020.5
20260506205018 72 264 0.9 5.2 0.00 0.00 0.00 59 1020.6
20260506204535 72 0 0.0 4.3 0.00 0.00 0.00 59 1020.6
20260506204019 72 0 0.0 5.2 0.00 0.00 0.00 59 1020.7
20260506203518 71 289 0.0 5.2 0.00 0.00 0.00 60 1020.7
20260506203035 71 0 0.0 5.2 0.00 0.00 0.00 60 1020.7
20260506202517 71 0 0.9 7.8 0.00 0.00 0.00 60 1021.0
20260506202018 71 0 0.9 7.8 0.00 0.00 0.00 60 1020.9
20260506201537 71 0 0.0 5.2 0.00 0.00 0.00 60 1020.9
20260506201017 70 0 0.0 5.2 0.00 0.00 0.00 61 1021.1
20260506200516 70 0 0.0 2.6 0.00 0.00 0.00 61 1021.0
20260506200039 70 0 0.0 2.6 0.00 0.00 0.00 61 1021.0
20260506195517 69 0 0.0 0.0 0.00 0.00 0.00 61 1021.0
20260506195018 70 0 0.0 0.0 0.00 0.00 0.00 61 1021.1
20260506194537 69 0 0.0 0.0 0.00 0.00 0.00 62 1021.1
20260506194017 69 0 0.0 0.0 0.00 0.00 0.00 62 1021.2
20260506193517 69 0 0.0 6.1 0.00 0.00 0.00 62 1021.3
20260506193045 67 0 0.0 6.1 0.00 0.00 0.00 63 1021.4
20260506192517 68 265 0.0 6.1 0.00 0.00 0.00 63 1021.4
20260506192015 68 0 0.0 5.2 0.00 0.00 0.00 63 1021.5
20260506191535 67 0 0.0 7.0 0.00 0.00 0.00 64 1021.6
20260506191018 66 0 0.0 7.0 0.00 0.00 0.00 66 1021.5
20260506190518 67 333 0.9 7.0 0.00 0.00 0.00 64 1021.5
20260506190034 67 0 0.9 6.1 0.00 0.00 0.00 65 1021.6
20260506185517 67 0 0.9 6.1 0.00 0.00 0.00 65 1021.6
20260506185018 65 0 0.0 7.0 0.00 0.00 0.00 67 1021.6
20260506184532 65 0 0.0 7.0 0.00 0.00 0.00 67 1021.7
20260506184019 67 340 0.9 7.0 0.00 0.00 0.00 65 1021.6
20260506183518 65 0 0.0 7.0 0.00 0.00 0.00 67 1021.7
20260506183036 65 0 0.0 7.0 0.00 0.00 0.00 67 1021.7
20260506182515 65 0 0.0 4.3 0.00 0.00 0.00 67 1021.7
20260506182019 66 340 0.0 0.0 0.00 0.00 0.00 66 1021.7
20260506181543 65 0 0.0 3.5 0.00 0.00 0.00 68 1021.7
20260506181018 65 0 0.0 3.5 0.00 0.00 0.00 67 1021.8
20260506180519 65 0 0.0 4.3 0.00 0.00 0.00 68 1021.8
20260506180036 64 0 0.0 4.3 0.00 0.00 0.00 68 1021.8
20260506175521 64 0 0.0 0.0 0.00 0.00 0.00 69 1021.7
20260506175018 63 0 0.0 5.2 0.00 0.00 0.00 70 1021.8
20260506174537 63 0 0.0 5.2 0.00 0.00 0.00 69 1021.8
20260506174023 64 0 0.0 5.2 0.00 0.00 0.00 69 1021.8
20260506173520 63 293 0.0 6.1 0.00 0.00 0.00 71 1021.8
20260506173104 63 0 0.0 6.1 0.00 0.00 0.00 71 1021.8
20260506172518 63 318 0.9 7.0 0.00 0.00 0.00 71 1021.9
20260506172018 62 0 0.9 7.0 0.00 0.00 0.00 72 1021.8
20260506171542 62 0 1.7 7.0 0.00 0.00 0.00 71 1021.7
20260506171020 63 252 0.9 7.0 0.00 0.00 0.00 71 1021.9
20260506170518 62 0 0.0 5.2 0.00 0.00 0.00 72 1021.9
20260506170051 62 0 0.0 0.0 0.00 0.00 0.00 72 1021.8
20260506165519 62 0 0.0 3.5 0.00 0.00 0.00 71 1021.8
20260506165021 62 0 0.0 3.5 0.00 0.00 0.00 71 1021.8
20260506164536 62 0 0.0 3.5 0.00 0.00 0.00 71 1021.8
20260506164017 62 0 0.0 0.0 0.00 0.00 0.00 73 1021.9
20260506163518 61 0 0.0 1.7 0.00 0.00 0.00 74 1021.9
20260506163041 60 0 0.0 4.3 0.00 0.00 0.00 74 1021.9
20260506162518 61 0 0.0 4.3 0.00 0.00 0.00 73 1021.9
20260506162020 62 0 0.0 4.3 0.00 0.00 0.00 73 1021.9
20260506161535 62 0 0.0 3.5 0.00 0.00 0.00 73 1021.9
20260506161020 62 0 0.0 2.6 0.00 0.00 0.00 73 1022.0
20260506160518 61 0 0.0 0.0 0.00 0.00 0.00 74 1022.1
20260506160039 60 0 0.0 0.0 0.00 0.00 0.00 76 1021.9
20260506155524 60 0 0.0 0.0 0.00 0.00 0.00 75 1022.2
20260506155020 60 0 0.0 0.0 0.00 0.00 0.00 76 1022.2
20260506154551 60 0 0.0 0.0 0.00 0.00 0.00 76 1022.1
20260506154020 60 0 0.0 0.0 0.00 0.00 0.00 76 1022.1
20260506153520 60 0 0.0 0.0 0.00 0.00 0.00 76 1022.1
20260506153036 59 0 0.0 0.0 0.00 0.00 0.00 78 1022.1
20260506152519 59 0 0.0 0.0 0.00 0.00 0.00 77 1022.2
20260506152020 59 0 0.0 0.0 0.00 0.00 0.00 77 1022.1
20260506151537 59 0 0.0 0.0 0.00 0.00 0.00 78 1022.1
20260506151020 58 0 0.0 0.0 0.00 0.00 0.00 78 1022.2
20260506150519 58 0 0.0 0.0 0.00 0.00 0.00 79 1022.2
20260506150037 58 0 0.0 0.0 0.00 0.00 0.00 79 1022.1
20260506145521 58 0 0.0 0.0 0.00 0.00 0.00 80 1022.3
20260506145019 57 0 0.0 0.0 0.00 0.00 0.00 81 1022.4
20260506144550 57 0 0.0 0.0 0.00 0.00 0.00 81 1022.3
20260506144022 57 0 0.0 0.0 0.00 0.00 0.00 82 1022.3
20260506143520 56 0 0.0 0.0 0.00 0.00 0.00 83 1022.2
20260506143037 56 0 0.0 0.0 0.00 0.00 0.00 84 1022.3
20260506142520 55 0 0.0 0.0 0.00 0.00 0.00 85 1022.2
20260506142020 55 0 0.0 0.0 0.00 0.00 0.00 86 1022.2
20260506141535 55 0 0.0 0.0 0.00 0.00 0.00 86 1022.2
20260506141020 54 0 0.0 0.0 0.00 0.00 0.00 87 1022.1
20260506140520 54 0 0.0 0.0 0.00 0.00 0.00 87 1022.0
20260506140037 53 0 0.0 0.0 0.00 0.00 0.00 88 1021.9
20260506135519 53 0 0.0 0.0 0.00 0.00 0.00 88 1021.8
20260506135022 53 0 0.0 0.0 0.00 0.00 0.00 88 1021.7
20260506134535 53 0 0.0 0.0 0.00 0.00 0.00 87 1021.6
20260506134022 52 0 0.0 0.0 0.00 0.00 0.00 87 1021.6
20260506133521 52 0 0.0 0.0 0.00 0.00 0.00 87 1021.5
20260506133056 52 0 0.0 0.0 0.00 0.00 0.00 87 1021.3
20260506132520 52 0 0.0 0.0 0.00 0.00 0.00 87 1021.3
20260506132024 52 0 0.0 0.0 0.00 0.00 0.00 87 1021.2
20260506131541 53 0 0.0 0.0 0.00 0.00 0.00 87 1021.2
20260506131020 53 0 0.0 0.0 0.00 0.00 0.00 86 1021.2
20260506130521 53 0 0.0 0.0 0.00 0.00 0.00 86 1021.0
20260506130040 53 0 0.0 0.0 0.00 0.00 0.00 86 1021.0
20260506125519 53 0 0.0 0.0 0.00 0.00 0.00 86 1021.0
20260506125019 53 0 0.0 0.0 0.00 0.00 0.00 86 1021.0
20260506124535 53 0 0.0 0.0 0.00 0.00 0.00 86 1021.0
20260506124020 54 0 0.0 0.0 0.00 0.00 0.00 85 1020.9
20260506123520 54 0 0.0 0.0 0.00 0.00 0.00 85 1021.0
20260506123035 54 0 0.0 0.0 0.00 0.00 0.00 85 1020.9
20260506122519 54 0 0.0 0.0 0.00 0.00 0.00 85 1020.9
20260506122023 54 0 0.0 0.0 0.00 0.00 0.00 85 1020.9
20260506121535 54 0 0.0 0.0 0.00 0.00 0.00 85 1020.9
20260506121019 55 0 0.0 0.0 0.00 0.00 0.00 84 1020.8
20260506120519 55 0 0.0 0.0 0.00 0.00 0.00 84 1020.9
20260506120040 55 0 0.0 0.0 0.00 0.00 0.00 84 1020.8
20260506115520 55 0 0.0 0.0 0.00 0.00 0.00 84 1020.8
20260506115017 55 0 0.0 0.0 0.00 0.00 0.00 84 1020.7
20260506114540 55 0 0.0 0.0 0.00 0.00 0.00 84 1020.7
20260506114020 55 0 0.0 0.0 0.00 0.00 0.00 84 1020.8
20260506113523 55 0 0.0 0.0 0.00 0.00 0.00 84 1020.8
20260506113036 55 0 0.0 0.0 0.00 0.00 0.00 84 1020.8
20260506112518 55 0 0.0 0.0 0.00 0.00 0.00 84 1020.6
20260506112019 55 0 0.0 0.0 0.00 0.00 0.00 84 1020.6
20260506111535 55 0 0.0 0.0 0.00 0.00 0.00 84 1020.7
20260506111019 55 0 0.0 0.0 0.00 0.00 0.00 84 1020.6
20260506110519 55 0 0.0 0.0 0.00 0.00 0.00 84 1020.6
20260506110041 55 0 0.0 0.0 0.00 0.00 0.00 84 1020.6
20260506105517 55 0 0.0 0.0 0.00 0.00 0.00 84 1020.7
20260506105019 55 0 0.0 0.0 0.00 0.00 0.00 84 1020.7
20260506104605 55 0 0.0 0.0 0.00 0.00 0.00 84 1020.6
20260506104019 55 0 0.0 0.0 0.00 0.00 0.00 83 1020.6
20260506103517 55 0 0.0 0.0 0.00 0.00 0.00 83 1020.5
20260506103042 55 0 0.0 0.0 0.00 0.00 0.00 83 1020.5
20260506102519 55 0 0.0 0.0 0.00 0.00 0.00 83 1020.5
20260506102020 56 0 0.0 0.0 0.00 0.00 0.00 82 1020.5
20260506101540 56 0 0.0 0.0 0.00 0.00 0.00 82 1020.4
20260506101019 56 0 0.0 0.0 0.00 0.00 0.00 82 1020.5
20260506100521 56 0 0.0 0.0 0.00 0.00 0.00 82 1020.5
20260506100042 56 0 0.0 0.0 0.00 0.00 0.00 82 1020.6
20260506095520 56 0 0.0 0.0 0.00 0.00 0.00 82 1020.5
20260506095020 56 0 0.0 0.0 0.00 0.00 0.00 82 1020.6
20260506094538 56 0 0.0 0.0 0.00 0.00 0.00 82 1020.4
20260506094019 56 0 0.0 0.0 0.00 0.00 0.00 82 1020.4
20260506093519 56 0 0.0 0.0 0.00 0.00 0.00 82 1020.5
20260506093035 56 0 0.0 0.0 0.00 0.00 0.00 82 1020.5
20260506092520 56 0 0.0 0.0 0.00 0.00 0.00 81 1020.5
20260506092017 56 0 0.0 0.0 0.00 0.00 0.00 81 1020.5
20260506091539 56 0 0.0 0.0 0.00 0.00 0.00 81 1020.6
20260506091016 56 0 0.0 0.0 0.00 0.00 0.00 80 1020.6
20260506090520 57 0 0.0 0.0 0.00 0.00 0.00 80 1020.6
20260506090044 57 0 0.0 0.0 0.00 0.00 0.00 80 1020.6
20260506085517 57 0 0.0 0.0 0.00 0.00 0.00 80 1020.5
20260506085017 57 0 0.0 0.0 0.00 0.00 0.00 80 1020.5
20260506084538 57 0 0.0 0.0 0.00 0.00 0.00 80 1020.6
20260506084022 57 0 0.0 0.0 0.00 0.00 0.00 80 1020.5
20260506083518 57 0 0.0 0.0 0.00 0.00 0.00 80 1020.6
20260506083040 57 0 0.0 0.0 0.00 0.00 0.00 80 1020.6
20260506082519 57 0 0.0 0.0 0.00 0.00 0.00 80 1020.6
20260506082023 57 0 0.0 0.0 0.00 0.00 0.00 80 1020.5
20260506081534 57 0 0.0 0.0 0.00 0.00 0.00 80 1020.5
20260506081022 57 0 0.0 0.0 0.00 0.00 0.00 80 1020.5
20260506080517 57 0 0.0 0.0 0.00 0.00 0.00 80 1020.5
20260506073520 57 0 0.0 0.0 0.00 0.00 0.00 79 1020.5
20260506073038 57 0 0.0 0.0 0.00 0.00 0.00 79 1020.4
20260506072521 57 0 0.0 0.0 0.00 0.00 0.00 79 1020.4
20260506072017 57 0 0.0 0.0 0.00 0.00 0.00 79 1020.4
20260506071538 57 0 0.0 0.0 0.00 0.00 0.00 79 1020.3
20260506071019 57 0 0.0 0.0 0.00 0.00 0.00 79 1020.2
20260506070519 57 0 0.0 0.0 0.00 0.00 0.00 79 1020.2
20260506062019 57 0 0.0 0.0 0.00 0.00 0.00 79 1019.9
20260506061540 58 0 0.0 0.0 0.00 0.00 0.00 79 1019.8
20260506061020 58 0 0.0 0.0 0.00 0.00 0.00 78 1019.8
20260506060517 58 0 0.0 0.0 0.00 0.00 0.00 78 1019.7
20260506051017 58 0 0.0 0.0 0.00 0.00 0.00 78 1019.4
20260506050520 58 0 0.0 0.0 0.00 0.00 0.00 78 1019.4
20260506045016 59 0 0.0 4.3 0.00 0.00 0.00 77 1019.3
20260506044540 59 0 0.0 0.0 0.00 0.00 0.00 76 1019.2
20260506044018 59 0 0.0 0.0 0.00 0.00 0.00 76 1019.1
20260506043520 59 0 0.0 0.0 0.00 0.00 0.00 75 1019.0
20260506043046 59 0 0.0 0.0 0.00 0.00 0.00 75 1019.0
20260506042520 59 0 0.0 0.0 0.00 0.00 0.00 75 1018.9
20260506042019 60 0 0.0 0.0 0.00 0.00 0.00 74 1018.8
20260506041538 60 0 0.0 0.0 0.00 0.00 0.00 74 1018.9
20260506041017 60 0 0.0 0.0 0.00 0.00 0.00 74 1018.7
20260506040519 60 0 0.0 0.0 0.00 0.00 0.00 74 1018.7
20260506040045 60 0 0.0 0.0 0.00 0.00 0.00 74 1018.6
20260506035519 60 0 0.0 0.0 0.00 0.00 0.00 74 1018.7
20260506035019 60 0 0.0 0.0 0.00 0.00 0.00 74 1018.5
20260506034533 60 0 0.0 3.5 0.00 0.00 0.00 74 1018.5
20260506034020 60 0 0.0 3.5 0.00 0.00 0.00 74 1018.5
20260506033519 60 0 0.0 3.5 0.00 0.00 0.00 74 1018.4
20260506033042 60 0 0.0 4.3 0.00 0.00 0.00 74 1018.2
20260506032519 60 0 0.0 4.3 0.00 0.00 0.00 74 1018.2
20260506032017 60 297 0.0 5.2 0.00 0.00 0.00 74 1018.1
20260506031539 60 0 0.0 5.2 0.00 0.00 0.00 74 1018.1
20260506031017 60 346 0.0 4.3 0.00 0.00 0.00 74 1018.0
20260506030518 60 0 0.0 2.6 0.00 0.00 0.00 74 1017.9
20260506030036 60 0 0.0 2.6 0.00 0.00 0.00 74 1017.9
20260506025518 60 0 0.0 2.6 0.00 0.00 0.00 73 1017.8
20260506025016 60 0 0.0 0.0 0.00 0.00 0.00 73 1017.6
20260506024543 60 0 0.0 1.7 0.00 0.00 0.00 73 1017.8
20260506024017 60 0 0.0 4.3 0.00 0.00 0.00 73 1017.7
20260506023522 60 0 0.0 4.3 0.00 0.00 0.00 73 1017.6
20260506023042 60 0 0.0 0.0 0.00 0.00 0.00 73 1017.6
20260506022518 60 0 0.0 0.0 0.00 0.00 0.00 73 1017.5
20260506022018 60 0 0.0 0.0 0.00 0.00 0.00 73 1017.6
20260506021549 60 0 0.0 0.9 0.00 0.00 0.00 73 1017.5
20260506021017 61 0 0.0 1.7 0.00 0.00 0.00 73 1017.5
20260506020521 61 0 0.0 5.2 0.00 0.00 0.00 72 1017.5
20260506020037 61 0 0.0 5.2 0.00 0.00 0.00 72 1017.5
20260506015519 61 280 0.0 0.9 0.00 0.00 0.00 72 1017.6